{"data":{"norad_id":45430,"intl_designator":"2020-020G","name":"ONEWEB-0069","alt_names":[],"object_type":"PAYLOAD","status":"ACTIVE","operator":null,"country":"UK","launch_date":"2020-03-21","launch_site_code":"TYMSC","launch_vehicle":null,"mission":null,"orbit_class":"UNKNOWN","rcs_meters":null,"size_class":null,"mass_kg":null,"dimensions":null,"purposes":["comms"],"wikipedia_slug":null,"has_3d_model":false,"image_url":null,"decayed_at":null,"tle_current":{"epoch":"2026-09-20T05:13:29.476128Z","epoch_age_seconds":38811,"freshness":"FRESH","line1":"1 45430U 20020G   26263.21770227 -.00000218  00000+0 -65122-3 0  9998","line2":"2 45430  87.8974   2.1834 0001975  97.2400 262.8953 13.11415450315125","mean_motion":13.1141545,"eccentricity":0.0001975,"inclination_deg":87.8974,"raan_deg":2.1834,"arg_perigee_deg":97.24,"mean_anomaly_deg":262.8953,"bstar":-0.00065122,"rev_number":31512,"period_min":109.8050202169,"perigee_km":1216.1882956125,"apogee_km":1219.1886466736,"semimajor_km":7595.825471143,"source":"CELESTRAK","updated_at":"2026-09-20T09:00:44.553197Z"}}}